Flag for Germany Weather past 2 weeks in Neuruppin, Brandenburg, Germany

Now
49 °F

Cool.


Feels Like: 49 °F
Forecast: 46 / 58 °F
Wind: 1 mph from South

Location: Neuruppin

Current Time: Oct 26, 2014 at 4:48:43 AM

Latest Report: Oct 26, 2014 at 3:00 AM


Visibility: 1 mi

Pressure: 30.23 "Hg

Humidity: 99%

Dew point: 48 °F

Location of NeuruppinLocation

Historic Weather in Neuruppin — Graph

°F

Neuruppin temperature yesterday

Maximum temperature yesterday: 48 °F (at 4:00 PM)
Minimum temperature yesterday: 42 °F (at 9:00 AM)
Average temperature yesterday: 45 °F

Past Weeks' High & Low Weather Summary

 TemperatureHumidityPressure
High71 °F (Oct 19, 3:00 PM)100% (Oct 15, 8:00 AM)30.27 "Hg (Oct 15, 8:00 AM)
Low42 °F (Oct 25, 9:00 AM)68% (Oct 19, 3:00 PM)29.44 "Hg (Oct 21, 9:00 PM)
Average54 °F92%29.92 "Hg
* Reported Oct 11 4:00 AM — Oct 26 3:00 AM, Neuruppin, Weather by CustomWeather, © 2014

Note: Actual official high and low records may vary slightly from our data, if they occured in-between our weather recording intervals... More about our weather records

Advertising

Neuruppin weather history for previous 24 hours

 ConditionsComfort  
Time TempWeatherWind HumidityBarometerVisibility
3:00 AM
Oct 26
49 °FCool.1 mph99%30.23 "Hg1 mi
2:00 AM48 °FCool.1 mph99%30.22 "Hg1 mi
2:00 AM47 °FCool.No wind99%30.22 "Hg0 mi
1:00 AM48 °FPassing clouds.1 mph97%30.20 "Hg0 mi
12:00 AM50 °FOvercast.1 mph98%30.19 "Hg2 mi
10:00 PM
Oct 25
48 °FLow clouds.2 mph99%30.17 "Hg2 mi
9:00 PM48 °FLow clouds.3 mph97%30.16 "Hg2 mi
8:00 PM48 °FOvercast.2 mph96%30.16 "Hg2 mi
7:00 PM47 °FOvercast.2 mph94%30.15 "Hg2 mi
6:00 PM47 °FOvercast.2 mph89%30.14 "Hg6 mi
5:00 PM48 °FOvercast.5 mph89%30.13 "Hg6 mi
4:00 PM48 °FOvercast.3 mph85%30.13 "Hg6 mi
3:00 PM48 °FLow clouds.3 mph87%30.12 "Hg6 mi
2:00 PM46 °FLow clouds.3 mph89%30.13 "Hg6 mi
1:00 PM44 °FLow clouds.5 mph91%30.13 "Hg4 mi
12:00 PM44 °FLow clouds.5 mph93%30.14 "Hg5 mi
11:00 AM43 °FLow clouds.6 mph97%30.14 "Hg4 mi
10:00 AM42 °FLow clouds.5 mph97%30.14 "Hg3 mi
9:00 AM42 °FLow clouds.6 mph96%30.13 "Hg4 mi
8:00 AM42 °FLow clouds.6 mph93%30.13 "Hg5 mi
7:00 AM43 °FLow clouds.7 mph92%30.13 "Hg6 mi
6:00 AM44 °FLow clouds.6 mph91%30.14 "Hg6 mi
4:00 AM45 °FLow clouds.7 mph93%30.15 "Hg6 mi
Weather by CustomWeather, © 2014

See weather overviewHow to use our weather pages